Voltar ao catálogo

STARLINK-37116

AtivoComunicaçõesSSO
NORAD 68213·PAYLOAD·🇺🇸 United States

Lançado Mar 17, 2026 de Vandenberg Space Force Base

Loading…

Próximas Passagens (próximas 24 horas)

TLE

AtualizadoSource: CelesTrak SupGP

Época: Sep 15, 2026, 03:08 UTC

1 68213C 26053G   26258.13104167  .00038480  00000+0  11942-2 0  2581
2 68213  97.2846 131.9430 0001889  95.7479  57.8805 15.33426376    10

Acompanhe STARLINK-37116 em tempo real com AllMySat

Download on the App Store